Tracking 35280 objects as of 7-Sep-2026
HD Live streaming from Space Station
objects crossing your sky now

IUS DEB

Track IUS DEB now!
10-day predictions


NORAD ID: 43367
Int'l Code: 1999-040Q
Launch date: July 23, 1999
Source: United States (US)
Launch site: AIR FORCE EASTERN TEST RANGE (AFETR)

Note: This is SATELLITE DEBRIS
Your satellite tracking list
Your tracking list is empty




NASA's NSSDC Master Catalog

Two Line Element Set (TLE):
1 43367U 99040Q   26250.00048286  .00000185  00000-0  11091-2 0  9996
2 43367  28.0948 160.4142 3768650 179.9807 180.1112  7.01238196126954
Source of the keplerian elements: AFSPC